Content
SEND FEEDBACK

Daily
Averages
Monthly
Summary
Malaysia

KUALA LUMPUR, MALAYSIA


Home > Asia > Malaysia
Elevation: 72 feet     Latitude: 03 07N     Longitude: 101 33E

WEATHER
 
SELECT A DAY
Number of Records: 124,271;   Date Range: 7/19/98 - 11/25/14
 
SHARE

PRINT THIS DATA

[ ← Previous Day ]
WEATHER ALMANAC - JULY 13, 2013
[ Next Day → ]
[ °C ]   °F
Weather ElementAverageHighLow
Temperature79.3 °F91.4 °F (1:00 pm)73.4 °F (8:00 pm)
Dewpoint75 °F77 °F (1:00 am)73.4 °F (4:00 pm)
Humidity87.6 %100 % (7:00 am)62 % (12:00 pm)
Barometer29.77 in29.80 in (1:00 am)29.71 in (3:00 pm)
Wind Speed5.7 mph26.5 mph (4:00 pm)
Wind Gust38 mph (4:00 pm)
Weather ElementAverage
Visibility5.6 mi
Wind DirectionW (270 °)

Weather ElementTotal
Precipitation---
Cooling Degree Days17.4 (Base 65)
Growing Degree Days32.4 (Base 50)
Averaged from 23 records on July 13, 2013
WEATHER CONDITIONS BREAKOUT
WIND DIRECTION BREAKOUT
WEATHER BY HOUR - JULY 13, 2013
[ °C ]   °F
Local TimeTemperatureDewpointHumidityBarometerVisibilityWind DirectionWind SpeedGust SpeedPrecipitationEventsConditions
1:00 AM80.6 °F77.0 °F89 %29.80 in6.2 miNW (310°)3.5 mphMostly Cloudy
2:00 AM78.8 °F75.2 °F89 %29.80 in6.2 miNW (310°)4.6 mphMostly Cloudy
3:00 AM77.0 °F75.2 °F94 %29.77 in6.2 miNW (320°)3.5 mphMostly Cloudy
4:00 AM77.0 °F75.2 °F94 %29.77 in6.2 miWNW (300°)2.3 mphMostly Cloudy
5:00 AM77.0 °F75.2 °F94 %29.77 in6.2 miWNW (290°)2.3 mphMostly Cloudy
6:00 AM77.0 °F75.2 °F94 %29.77 in6.2 miNorth (350°)1.2 mphMostly Cloudy
7:00 AM75.2 °F75.2 °F100 %29.77 in4.3 miENE (60°)1.2 mphMostly Cloudy
8:00 AM77.0 °F75.2 °F94 %29.77 in3.7 miNNW (330°)2.3 mphMostly Cloudy
9:00 AM78.8 °F77.0 °F94 %29.80 in4.3 miNNW (330°)2.3 mphMostly Cloudy
10:00 AM84.2 °F77.0 °F79 %29.80 in5.6 miNW (310°)6.9 mphMostly Cloudy
11:00 AM87.8 °F75.2 °F66 %29.80 in6.2 miNW (310°)11.5 mphMostly Cloudy
12:00 PM89.6 °F75.2 °F62 %29.80 in6.2 miWNW (300°)11.5 mphMostly Cloudy
1:00 PM91.4 °F77.0 °F63 %29.77 in6.2 miNW (320°)9.2 mphMostly Cloudy
2:00 PM89.6 °F77.0 °F66 %29.74 in6.2 miWNW (290°)8.1 mphMostly Cloudy
3:00 PM84.2 °F77.0 °F79 %29.71 in6.2 miSSE (150°)2.3 mphMostly Cloudy
4:00 PM75.2 °F73.4 °F94 %29.74 in1.9 miWNW (290°)26.5 mph38.0 mphRain-ThunderstormThunderstorms and Rain
5:00 PM75.2 °F73.4 °F94 %29.74 in5.0 miWest (280°)10.4 mphRain-ThunderstormLight Thunderstorms and Rain
6:00 PM75.2 °F73.4 °F94 %29.77 in6.2 miCalmRain-ThunderstormLight Thunderstorms and Rain
7:00 PM75.2 °F73.4 °F94 %29.77 in6.2 miNorth (10°)5.8 mphOvercast
8:00 PM73.4 °F73.4 °F100 %29.77 in6.2 miNorth (360°)4.6 mphRainLight Rain
9:00 PM75.2 °F73.4 °F94 %29.77 in5.0 miNorth (350°)3.5 mphRainLight Rain
10:00 PM75.2 °F73.4 °F94 %29.77 in6.2 miNNW (340°)3.5 mphMostly Cloudy
11:00 PM75.2 °F73.4 °F94 %29.77 in6.2 miWNW (300°)3.5 mphMostly Cloudy
Hourly data recorded from WMSA, located miles away from Kuala Lumpur, Malaysia







STORIES FROM OUR PARTNERS